HST
1 20580U 90037B   24146.16916358  .00006345  00000-0  29886-3 0  9994
2 20580  28.4666 139.3152 0002743 143.4174 216.6606 15.17459787673796
ISS (ZARYA)
1 25544U 98067A   24146.47503061 -.00007328  00000-0 -11851-3 0  9994
2 25544  51.6399  67.8917 0005513 236.8874 276.2667 15.50443312455025
CXO
1 25867U 99040B   24146.70693382  .00000710  00000-0  00000-0 0  9993
2 25867  40.6231 156.0161 8910656 294.8672 359.9653  0.37810235 14485